User: anonymous   Login
Location: Unspecified
(0.0000°N, 0.0000°E)
Time: 05:43:49
(UTC+00:00)
Language:

NOSS 2-2 (C) - Orbit

View from above orbital plane
View from above orbital plane
View from above satellite
View from above satellite

Ground track
Ground track

The orbit data is extracted from the following two-line orbital elements,

1 21799U 91076C   18344.49080946 0.00000100  00000-0  25288-4 0    04
2 21799  63.3400 140.7061 0795000  31.3917 328.6082 13.41207130    01
Epoch (UTC): 10 December 2018 11:46:45
Eccentricity: 0.0795000
inclination: 63.3400°
perigee height: 510 km
apogee height: 1699 km
right ascension of ascending node: 140.7061°
argument of perigee: 31.3917°
revolutions per day: 13.41207130
mean anomaly at epoch: 328.6082°
orbit number at epoch: 0

The dashed part of the orbit path shows where the satellite is in the earth's shadow,  

DLR